sat.trackr.live / text

‹ back to catalog

STARLINK-37398

NORAD 69249 · 2026-117M

PAYLOAD ACTIVE UNKNOWN

§ Identity

Operator
Country
US
Launch date
2026-05-29
Launch site
AFETR
Launch vehicle
Mass (kg)
RCS (m²)

Purposes: comms

External: N2YO · Heavens-Above · Gunter

§ Orbital elements

Epoch: 2026-09-20T01:44:52.455840Z

Period
93.85 min
Inclination
53.1547°
Eccentricity
0.0001593
Mean motion
15.34411260 rev/d
Perigee alt
461.6 km
Apogee alt
463.8 km
Semi-major
6,840.8 km
B*
5.9678e-4
RAAN
155.5886°
Arg perigee
97.6284°
Mean anomaly
262.4899°
Rev number
1,760

§ Raw data

STARLINK-373981 69249U 26117M   26263.07282935  .00019848  00000+0  59678-3 0  99992 69249  53.1547 155.5886 0001593  97.6284 262.4899 15.34411260 17600

JSON: /api/v1/satellites/69249 · /tle

For live sub-satellite position, see the globe view (requires WebGL).

§ Visibility from observer

Set your observer location to see the next 7 days of passes ≥ 10°. The values pass through the URL so the page stays shareable.

No JS? Fill the form by hand. The geolocation button needs JavaScript.